Year,Month,Day,Hour,Minute,Value (Times are PST for temperature in C)
2021,06,03,00,00,16.80
2021,06,03,00,01,16.80
2021,06,03,00,02,16.80
2021,06,03,00,03,16.80
2021,06,03,00,04,16.80
2021,06,03,00,05,16.80
2021,06,03,00,06,16.80
2021,06,03,00,07,16.80
2021,06,03,00,08,16.80
2021,06,03,00,09,16.80
2021,06,03,00,10,16.80
2021,06,03,00,11,16.80
2021,06,03,00,12,16.70
2021,06,03,00,13,16.70
2021,06,03,00,14,16.70
2021,06,03,00,15,16.70
2021,06,03,00,16,16.70
2021,06,03,00,17,16.70
2021,06,03,00,18,16.70
2021,06,03,00,19,16.70
2021,06,03,00,20,16.70
2021,06,03,00,21,16.70
2021,06,03,00,22,16.60
2021,06,03,00,23,16.60
2021,06,03,00,24,16.70
2021,06,03,00,25,16.70
2021,06,03,00,26,16.70
2021,06,03,00,27,16.70
2021,06,03,00,28,16.70
2021,06,03,00,29,16.70
2021,06,03,00,30,16.70
2021,06,03,00,31,16.70
2021,06,03,00,32,16.70
2021,06,03,00,33,16.70
2021,06,03,00,34,16.70
2021,06,03,00,35,16.70
2021,06,03,00,36,16.70
2021,06,03,00,37,16.70
2021,06,03,00,38,16.70
2021,06,03,00,39,16.70
2021,06,03,00,40,16.70
2021,06,03,00,41,16.70
2021,06,03,00,42,16.70
2021,06,03,00,43,16.70
2021,06,03,00,44,16.80
2021,06,03,00,45,16.80
2021,06,03,00,46,16.80
2021,06,03,00,47,16.80
2021,06,03,00,48,16.80
2021,06,03,00,49,16.80
2021,06,03,00,50,16.80
2021,06,03,00,51,16.80
2021,06,03,00,52,16.80
2021,06,03,00,53,16.80
2021,06,03,00,54,16.90
2021,06,03,00,55,16.80
2021,06,03,00,56,16.80
2021,06,03,00,57,16.80
2021,06,03,00,58,16.80
2021,06,03,00,59,16.80
2021,06,03,01,00,16.80
2021,06,03,01,01,16.80
2021,06,03,01,02,16.80
2021,06,03,01,03,16.80
2021,06,03,01,04,16.80
2021,06,03,01,05,16.80
2021,06,03,01,06,16.80
2021,06,03,01,07,16.70
2021,06,03,01,08,16.70
2021,06,03,01,09,16.70
2021,06,03,01,10,16.70
2021,06,03,01,11,16.70
2021,06,03,01,12,16.60
2021,06,03,01,13,16.60
2021,06,03,01,14,16.60
2021,06,03,01,15,16.60
2021,06,03,01,16,16.50
2021,06,03,01,17,16.40
2021,06,03,01,18,16.40
2021,06,03,01,19,16.40
2021,06,03,01,20,16.30
2021,06,03,01,21,16.30
2021,06,03,01,22,16.30
2021,06,03,01,23,16.30
2021,06,03,01,24,16.30
2021,06,03,01,25,16.30
2021,06,03,01,26,16.20
2021,06,03,01,27,16.20
2021,06,03,01,28,16.20
2021,06,03,01,29,16.20
2021,06,03,01,30,16.20
2021,06,03,01,31,16.10
2021,06,03,01,32,16.10
2021,06,03,01,33,16.10
2021,06,03,01,34,16.10
2021,06,03,01,35,16.00
2021,06,03,01,36,16.00
2021,06,03,01,37,16.00
2021,06,03,01,38,15.90
2021,06,03,01,39,15.90
2021,06,03,01,40,15.90
2021,06,03,01,41,15.90
2021,06,03,01,42,15.90
2021,06,03,01,43,15.80
2021,06,03,01,44,15.80
2021,06,03,01,45,15.80
2021,06,03,01,46,15.80
2021,06,03,01,47,15.70
2021,06,03,01,48,15.70
2021,06,03,01,49,15.60
2021,06,03,01,50,15.60
2021,06,03,01,51,15.50
2021,06,03,01,52,15.40
2021,06,03,01,53,15.30
2021,06,03,01,54,15.30
2021,06,03,01,55,15.20
2021,06,03,01,56,15.20
2021,06,03,01,57,15.10
2021,06,03,01,58,15.10
2021,06,03,01,59,15.10
2021,06,03,02,00,15.00
2021,06,03,02,01,14.90
2021,06,03,02,02,14.80
2021,06,03,02,03,14.70
2021,06,03,02,04,14.60
2021,06,03,02,05,14.50
2021,06,03,02,06,14.40
2021,06,03,02,07,14.30
2021,06,03,02,08,14.30
2021,06,03,02,09,14.20
2021,06,03,02,10,14.20
2021,06,03,02,11,14.10
2021,06,03,02,12,14.10
2021,06,03,02,13,14.00
2021,06,03,02,14,14.00
2021,06,03,02,15,13.90
2021,06,03,02,16,13.90
2021,06,03,02,17,13.90
2021,06,03,02,18,13.90
2021,06,03,02,19,13.80
2021,06,03,02,20,13.80
2021,06,03,02,21,13.80
2021,06,03,02,22,13.80
2021,06,03,02,23,13.80
2021,06,03,02,24,13.80
2021,06,03,02,25,13.80
2021,06,03,02,26,13.80
2021,06,03,02,27,13.90
2021,06,03,02,28,13.90
2021,06,03,02,29,13.90
2021,06,03,02,30,13.90
2021,06,03,02,31,13.90
2021,06,03,02,32,13.90
2021,06,03,02,33,13.90
2021,06,03,02,34,13.90
2021,06,03,02,35,13.90
2021,06,03,02,36,13.90
2021,06,03,02,37,13.90
2021,06,03,02,38,13.80
2021,06,03,02,39,13.80
2021,06,03,02,40,13.80
2021,06,03,02,41,13.80
2021,06,03,02,42,13.80
2021,06,03,02,43,13.80
2021,06,03,02,44,13.80
2021,06,03,02,45,13.80
2021,06,03,02,46,13.80
2021,06,03,02,47,13.80
2021,06,03,02,48,13.80
2021,06,03,02,49,13.70
2021,06,03,02,50,13.70
2021,06,03,02,51,13.70
2021,06,03,02,52,13.70
2021,06,03,02,53,13.70
2021,06,03,02,54,13.70
2021,06,03,02,55,13.70
2021,06,03,02,56,13.70
2021,06,03,02,57,13.60
2021,06,03,02,58,13.60
2021,06,03,02,59,13.60
2021,06,03,03,00,13.60
2021,06,03,03,01,13.60
2021,06,03,03,02,13.60
2021,06,03,03,03,13.60
2021,06,03,03,04,13.50
2021,06,03,03,05,13.50
2021,06,03,03,06,13.50
2021,06,03,03,07,13.40
2021,06,03,03,08,13.40
2021,06,03,03,09,13.40
2021,06,03,03,10,13.40
2021,06,03,03,11,13.40
2021,06,03,03,12,13.40
2021,06,03,03,13,13.40
2021,06,03,03,14,13.40
2021,06,03,03,15,13.40
2021,06,03,03,16,13.40
2021,06,03,03,17,13.40
2021,06,03,03,18,13.40
2021,06,03,03,19,13.40
2021,06,03,03,20,13.30
2021,06,03,03,21,13.30
2021,06,03,03,22,13.30
2021,06,03,03,23,13.30
2021,06,03,03,24,13.30
2021,06,03,03,25,13.30
2021,06,03,03,26,13.20
2021,06,03,03,27,13.20
2021,06,03,03,28,13.20
2021,06,03,03,29,13.20
2021,06,03,03,30,13.20
2021,06,03,03,31,13.20
2021,06,03,03,32,13.10
2021,06,03,03,33,13.10
2021,06,03,03,34,13.10
2021,06,03,03,35,13.20
2021,06,03,03,36,13.40
2021,06,03,03,37,13.60
2021,06,03,03,38,13.70
2021,06,03,03,39,13.90
2021,06,03,03,40,14.10
2021,06,03,03,41,14.20
2021,06,03,03,42,14.30
2021,06,03,03,43,14.50
2021,06,03,03,44,14.60
2021,06,03,03,45,14.70
2021,06,03,03,46,14.80
2021,06,03,03,47,14.90
2021,06,03,03,48,14.90
2021,06,03,03,49,15.00
2021,06,03,03,50,15.10
2021,06,03,03,51,15.10
2021,06,03,03,52,15.10
2021,06,03,03,53,15.20
2021,06,03,03,54,15.20
2021,06,03,03,55,15.20
2021,06,03,03,56,15.20
2021,06,03,03,57,15.20
2021,06,03,03,58,15.20
2021,06,03,03,59,15.20
2021,06,03,04,00,15.20
2021,06,03,04,01,15.20
2021,06,03,04,02,15.20
2021,06,03,04,03,15.20
2021,06,03,04,04,15.20
2021,06,03,04,05,15.20
2021,06,03,04,06,15.20
2021,06,03,04,07,15.20
2021,06,03,04,08,15.10
2021,06,03,04,09,15.10
2021,06,03,04,10,15.10
2021,06,03,04,11,15.10
2021,06,03,04,12,15.10
2021,06,03,04,13,15.10
2021,06,03,04,14,15.10
2021,06,03,04,15,15.00
2021,06,03,04,16,15.00
2021,06,03,04,17,15.00
2021,06,03,04,18,15.00
2021,06,03,04,19,15.00
2021,06,03,04,20,14.90
2021,06,03,04,21,14.90
2021,06,03,04,22,14.90
2021,06,03,04,23,14.90
2021,06,03,04,24,14.90
2021,06,03,04,25,14.90
2021,06,03,04,26,14.90
2021,06,03,04,27,14.90
2021,06,03,04,28,14.80
2021,06,03,04,29,14.80
2021,06,03,04,30,14.80
2021,06,03,04,31,14.80
2021,06,03,04,32,14.80
2021,06,03,04,33,14.80
2021,06,03,04,34,14.80
2021,06,03,04,35,14.80
2021,06,03,04,36,14.80
2021,06,03,04,37,14.70
2021,06,03,04,38,14.70
2021,06,03,04,39,14.70
2021,06,03,04,40,14.70
2021,06,03,04,41,14.70
2021,06,03,04,42,14.70
2021,06,03,04,43,14.70
2021,06,03,04,44,14.70
2021,06,03,04,45,14.70
2021,06,03,04,46,14.70
2021,06,03,04,47,14.70
2021,06,03,04,48,14.70
2021,06,03,04,49,14.70
2021,06,03,04,50,14.70
2021,06,03,04,51,14.70
2021,06,03,04,52,14.70
2021,06,03,04,53,14.70
2021,06,03,04,54,14.70
2021,06,03,04,55,14.70
2021,06,03,04,56,14.70
2021,06,03,04,57,14.60
2021,06,03,04,58,14.60
2021,06,03,04,59,14.60
2021,06,03,05,00,14.60
2021,06,03,05,01,14.60
2021,06,03,05,02,14.60
2021,06,03,05,03,14.60
2021,06,03,05,04,14.60
2021,06,03,05,05,14.60
2021,06,03,05,06,14.60
2021,06,03,05,07,14.60
2021,06,03,05,08,14.60
2021,06,03,05,09,14.50
2021,06,03,05,10,14.50
2021,06,03,05,11,14.50
2021,06,03,05,12,14.50
2021,06,03,05,13,14.50
2021,06,03,05,14,14.50
2021,06,03,05,15,14.50
2021,06,03,05,16,14.50
2021,06,03,05,17,14.50
2021,06,03,05,18,14.50
2021,06,03,05,19,14.50
2021,06,03,05,20,14.50
2021,06,03,05,21,14.50
2021,06,03,05,22,14.40
2021,06,03,05,23,14.40
2021,06,03,05,24,14.40
2021,06,03,05,25,14.40
2021,06,03,05,26,14.40
2021,06,03,05,27,14.40
2021,06,03,05,28,14.40
2021,06,03,05,29,14.40
2021,06,03,05,30,14.40
2021,06,03,05,31,14.40
2021,06,03,05,32,14.40
2021,06,03,05,33,14.40
2021,06,03,05,34,14.40
2021,06,03,05,35,14.50
2021,06,03,05,36,14.50
2021,06,03,05,37,14.50
2021,06,03,05,38,14.50
2021,06,03,05,39,14.50
2021,06,03,05,40,14.50
2021,06,03,05,41,14.50
2021,06,03,05,42,14.60
2021,06,03,05,43,14.60
2021,06,03,05,44,14.60
2021,06,03,05,45,14.60
2021,06,03,05,46,14.60
2021,06,03,05,47,14.60
2021,06,03,05,48,14.60
2021,06,03,05,49,14.60
2021,06,03,05,50,14.70
2021,06,03,05,51,14.70
2021,06,03,05,52,14.70
2021,06,03,05,53,14.70
2021,06,03,05,54,14.70
2021,06,03,05,55,14.70
2021,06,03,05,56,14.80
2021,06,03,05,57,14.80
2021,06,03,05,58,14.80
2021,06,03,05,59,14.80
2021,06,03,06,00,14.80
2021,06,03,06,01,14.80
2021,06,03,06,02,14.80
2021,06,03,06,03,14.90
2021,06,03,06,04,14.90
2021,06,03,06,05,14.90
2021,06,03,06,06,14.90
2021,06,03,06,07,14.90
2021,06,03,06,08,14.90
2021,06,03,06,09,14.90
2021,06,03,06,10,14.90
2021,06,03,06,11,14.90
2021,06,03,06,12,15.00
2021,06,03,06,13,15.00
2021,06,03,06,14,15.00
2021,06,03,06,15,15.10
2021,06,03,06,16,15.10
2021,06,03,06,17,15.10
2021,06,03,06,18,15.20
2021,06,03,06,19,15.20
2021,06,03,06,20,15.30
2021,06,03,06,21,15.30
2021,06,03,06,22,15.40
2021,06,03,06,23,15.40
2021,06,03,06,24,15.50
2021,06,03,06,25,15.50
2021,06,03,06,26,15.60
2021,06,03,06,27,15.60
2021,06,03,06,28,15.70
2021,06,03,06,29,15.70
2021,06,03,06,30,15.80
2021,06,03,06,31,15.80
2021,06,03,06,32,15.80
2021,06,03,06,33,15.80
2021,06,03,06,34,15.80
2021,06,03,06,35,15.80
2021,06,03,06,36,15.80
2021,06,03,06,37,15.80
2021,06,03,06,38,15.80
2021,06,03,06,39,15.80
2021,06,03,06,40,15.70
2021,06,03,06,41,15.70
2021,06,03,06,42,15.60
2021,06,03,06,43,15.60
2021,06,03,06,44,15.60
2021,06,03,06,45,15.50
2021,06,03,06,46,15.50
2021,06,03,06,47,15.50
2021,06,03,06,48,15.50
2021,06,03,06,49,15.50
2021,06,03,06,50,15.50
2021,06,03,06,51,15.50
2021,06,03,06,52,15.50
2021,06,03,06,53,15.50
2021,06,03,06,54,15.50
2021,06,03,06,55,15.50
2021,06,03,06,56,15.50
2021,06,03,06,57,15.50
2021,06,03,06,58,15.50
2021,06,03,06,59,15.50
2021,06,03,07,00,15.50
2021,06,03,07,01,15.60
2021,06,03,07,02,15.60
2021,06,03,07,03,15.60
2021,06,03,07,04,15.60
2021,06,03,07,05,15.60
2021,06,03,07,06,15.70
2021,06,03,07,07,15.70
2021,06,03,07,08,15.80
2021,06,03,07,09,15.80
2021,06,03,07,10,15.80
2021,06,03,07,11,15.90
2021,06,03,07,12,15.90
2021,06,03,07,13,15.90
2021,06,03,07,14,16.00
2021,06,03,07,15,16.00
2021,06,03,07,16,16.00
2021,06,03,07,17,16.10
2021,06,03,07,18,16.10
2021,06,03,07,19,16.10
2021,06,03,07,20,16.10
2021,06,03,07,21,16.10
2021,06,03,07,22,16.10
2021,06,03,07,23,16.20
2021,06,03,07,24,16.20
2021,06,03,07,25,16.20
2021,06,03,07,26,16.20
2021,06,03,07,27,16.20
2021,06,03,07,28,16.20
2021,06,03,07,29,16.20
2021,06,03,07,30,16.20
2021,06,03,07,31,16.20
2021,06,03,07,32,16.30
2021,06,03,07,33,16.30
2021,06,03,07,34,16.30
2021,06,03,07,35,16.30
2021,06,03,07,36,16.30
2021,06,03,07,37,16.30
2021,06,03,07,38,16.30
2021,06,03,07,39,16.30
2021,06,03,07,40,16.30
2021,06,03,07,41,16.30
2021,06,03,07,42,16.30
2021,06,03,07,43,16.30
2021,06,03,07,44,16.30
2021,06,03,07,45,16.40
2021,06,03,07,46,16.40
2021,06,03,07,47,16.40
2021,06,03,07,48,16.40
2021,06,03,07,49,16.50
2021,06,03,07,50,16.50
2021,06,03,07,51,16.50
2021,06,03,07,52,16.60
2021,06,03,07,53,16.60
2021,06,03,07,54,16.60
2021,06,03,07,55,16.70
2021,06,03,07,56,16.70
2021,06,03,07,57,16.70
2021,06,03,07,58,16.80
2021,06,03,07,59,16.80
2021,06,03,08,00,16.90
2021,06,03,08,01,16.90
2021,06,03,08,02,16.90
2021,06,03,08,03,17.00
2021,06,03,08,04,16.90
2021,06,03,08,05,16.80
2021,06,03,08,06,16.50
2021,06,03,08,07,16.30
2021,06,03,08,08,16.10
2021,06,03,08,09,15.90
2021,06,03,08,10,15.70
2021,06,03,08,11,15.50
2021,06,03,08,12,15.40
2021,06,03,08,13,15.30
2021,06,03,08,14,15.20
2021,06,03,08,15,15.20
2021,06,03,08,16,15.20
2021,06,03,08,17,15.10
2021,06,03,08,18,15.10
2021,06,03,08,19,15.10
2021,06,03,08,20,15.10
2021,06,03,08,21,15.10
2021,06,03,08,22,15.00
2021,06,03,08,23,15.00
2021,06,03,08,24,14.90
2021,06,03,08,25,14.80
2021,06,03,08,26,14.70
2021,06,03,08,27,14.60
2021,06,03,08,28,14.60
2021,06,03,08,29,14.60
2021,06,03,08,30,14.60
2021,06,03,08,31,14.60
2021,06,03,08,32,14.60
2021,06,03,08,33,14.60
2021,06,03,08,34,14.50
2021,06,03,08,35,14.50
2021,06,03,08,36,14.50
2021,06,03,08,37,14.50
2021,06,03,08,38,14.50
2021,06,03,08,39,14.50
2021,06,03,08,40,14.50
2021,06,03,08,41,14.50
2021,06,03,08,42,14.50
2021,06,03,08,43,14.50
2021,06,03,08,44,14.50
2021,06,03,08,45,14.50
2021,06,03,08,46,14.50
2021,06,03,08,47,14.50
2021,06,03,08,48,14.60
2021,06,03,08,49,14.60
2021,06,03,08,50,14.60
2021,06,03,08,51,14.60
2021,06,03,08,52,14.50
2021,06,03,08,53,14.40
2021,06,03,08,54,14.40
2021,06,03,08,55,14.40
2021,06,03,08,56,14.40
2021,06,03,08,57,14.40
2021,06,03,08,58,14.40
2021,06,03,08,59,14.50
2021,06,03,09,00,14.60
2021,06,03,09,01,14.70
2021,06,03,09,02,14.80
2021,06,03,09,03,15.00
2021,06,03,09,04,15.10
2021,06,03,09,05,15.20
2021,06,03,09,06,15.20
2021,06,03,09,07,15.20
2021,06,03,09,08,15.20
2021,06,03,09,09,15.20
2021,06,03,09,10,15.20
2021,06,03,09,11,15.20
2021,06,03,09,12,15.20
2021,06,03,09,13,15.10
2021,06,03,09,14,15.10
2021,06,03,09,15,15.10
2021,06,03,09,16,15.00
2021,06,03,09,17,14.90
2021,06,03,09,18,14.90
2021,06,03,09,19,14.90
2021,06,03,09,20,14.80
2021,06,03,09,21,14.80
2021,06,03,09,22,14.80
2021,06,03,09,23,14.80
2021,06,03,09,24,14.80
2021,06,03,09,25,14.80
2021,06,03,09,26,14.90
2021,06,03,09,27,15.00
2021,06,03,09,28,15.00
2021,06,03,09,29,15.10
2021,06,03,09,30,15.20
2021,06,03,09,31,15.30
2021,06,03,09,32,15.40
2021,06,03,09,33,15.50
2021,06,03,09,34,15.50
2021,06,03,09,35,15.60
2021,06,03,09,36,15.50
2021,06,03,09,37,15.50
2021,06,03,09,38,15.40
2021,06,03,09,39,15.40
2021,06,03,09,40,15.40
2021,06,03,09,41,15.40
2021,06,03,09,42,15.40
2021,06,03,09,43,15.40
2021,06,03,09,44,15.40
2021,06,03,09,45,15.50
2021,06,03,09,46,15.50
2021,06,03,09,47,15.60
2021,06,03,09,48,15.60
2021,06,03,09,49,15.70
2021,06,03,09,50,15.70
2021,06,03,09,51,15.80
2021,06,03,09,52,15.80
2021,06,03,09,53,15.70
2021,06,03,09,54,15.60
2021,06,03,09,55,15.50
2021,06,03,09,56,15.50
2021,06,03,09,57,15.40
2021,06,03,09,58,15.40
2021,06,03,09,59,15.40
2021,06,03,10,00,15.30
2021,06,03,10,01,15.30
2021,06,03,10,02,15.40
2021,06,03,10,03,15.40
2021,06,03,10,04,15.40
2021,06,03,10,05,15.50
2021,06,03,10,06,15.50
2021,06,03,10,07,15.60
2021,06,03,10,08,15.60
2021,06,03,10,09,15.70
2021,06,03,10,10,15.70
2021,06,03,10,11,15.70
2021,06,03,10,12,15.70
2021,06,03,10,13,15.70
2021,06,03,10,14,15.60
2021,06,03,10,15,15.60
2021,06,03,10,16,15.50
2021,06,03,10,17,15.50
2021,06,03,10,18,15.40
2021,06,03,10,19,15.30
2021,06,03,10,20,15.30
2021,06,03,10,21,15.20
2021,06,03,10,22,15.20
2021,06,03,10,23,15.30
2021,06,03,10,24,15.30
2021,06,03,10,25,15.30
2021,06,03,10,26,15.30
2021,06,03,10,27,15.30
2021,06,03,10,28,15.30
2021,06,03,10,29,15.30
2021,06,03,10,30,15.30
2021,06,03,10,31,15.30
2021,06,03,10,32,15.40
2021,06,03,10,33,15.50
2021,06,03,10,34,15.60
2021,06,03,10,35,15.70
2021,06,03,10,36,15.70
2021,06,03,10,37,15.80
2021,06,03,10,38,15.90
2021,06,03,10,39,16.00
2021,06,03,10,40,16.00
2021,06,03,10,41,16.10
2021,06,03,10,42,16.20
2021,06,03,10,43,16.30
2021,06,03,10,44,16.30
2021,06,03,10,45,16.30
2021,06,03,10,46,16.30
2021,06,03,10,47,16.30
2021,06,03,10,48,16.30
2021,06,03,10,49,16.30
2021,06,03,10,50,16.30
2021,06,03,10,51,16.40
2021,06,03,10,52,16.40
2021,06,03,10,53,16.40
2021,06,03,10,54,16.30
2021,06,03,10,55,16.20
2021,06,03,10,56,16.00
2021,06,03,10,57,15.80
2021,06,03,10,58,15.60
2021,06,03,10,59,15.50
2021,06,03,11,00,15.30
2021,06,03,11,01,15.10
2021,06,03,11,02,14.90
2021,06,03,11,03,14.80
2021,06,03,11,04,14.80
2021,06,03,11,05,14.80
2021,06,03,11,06,14.80
2021,06,03,11,07,14.80
2021,06,03,11,08,14.80
2021,06,03,11,09,14.80
2021,06,03,11,10,14.90
2021,06,03,11,11,15.00
2021,06,03,11,12,15.00
2021,06,03,11,13,15.10
2021,06,03,11,14,15.20
2021,06,03,11,15,15.30
2021,06,03,11,16,15.30
2021,06,03,11,17,15.40
2021,06,03,11,18,15.50
2021,06,03,11,19,15.60
2021,06,03,11,20,15.60
2021,06,03,11,21,15.60
2021,06,03,11,22,15.70
2021,06,03,11,23,15.70
2021,06,03,11,24,15.80
2021,06,03,11,25,15.80
2021,06,03,11,26,15.90
2021,06,03,11,27,15.90
2021,06,03,11,28,15.90
2021,06,03,11,29,16.00
2021,06,03,11,30,15.90
2021,06,03,11,31,15.90
2021,06,03,11,32,15.90
2021,06,03,11,33,15.90
2021,06,03,11,34,15.90
2021,06,03,11,35,15.90
2021,06,03,11,36,15.80
2021,06,03,11,37,15.80
2021,06,03,11,38,15.80
2021,06,03,11,39,15.80
2021,06,03,11,40,15.80
2021,06,03,11,41,15.80
2021,06,03,11,42,15.90
2021,06,03,11,43,16.00
2021,06,03,11,44,16.00
2021,06,03,11,45,16.00
2021,06,03,11,46,16.00
2021,06,03,11,47,15.90
2021,06,03,11,48,15.70
2021,06,03,11,49,15.50
2021,06,03,11,50,15.40
2021,06,03,11,51,15.20
2021,06,03,11,52,15.10
2021,06,03,11,53,15.10
2021,06,03,11,54,15.10
2021,06,03,11,55,15.10
2021,06,03,11,56,14.90
2021,06,03,11,57,14.80
2021,06,03,11,58,14.70
2021,06,03,11,59,14.70
2021,06,03,12,00,14.70
2021,06,03,12,01,14.70
2021,06,03,12,02,14.70
2021,06,03,12,03,14.70
2021,06,03,12,04,14.80
2021,06,03,12,05,14.90
2021,06,03,12,06,15.10
2021,06,03,12,07,15.20
2021,06,03,12,08,15.30
2021,06,03,12,09,15.40
2021,06,03,12,10,15.40
2021,06,03,12,11,15.40
2021,06,03,12,12,15.50
2021,06,03,12,13,15.80
2021,06,03,12,14,16.00
2021,06,03,12,15,16.30
2021,06,03,12,16,16.40
2021,06,03,12,17,16.60
2021,06,03,12,18,16.70
2021,06,03,12,19,16.80
2021,06,03,12,20,17.00
2021,06,03,12,21,17.20
2021,06,03,12,22,17.30
2021,06,03,12,23,17.60
2021,06,03,12,24,17.90
2021,06,03,12,25,18.10
2021,06,03,12,26,18.30
2021,06,03,12,27,18.60
2021,06,03,12,28,18.80
2021,06,03,12,29,19.00
2021,06,03,12,30,19.20
2021,06,03,12,31,19.50
2021,06,03,12,32,19.60
2021,06,03,12,33,19.80
2021,06,03,12,34,19.90
2021,06,03,12,35,20.00
2021,06,03,12,36,20.00
2021,06,03,12,37,20.10
2021,06,03,12,38,20.20
2021,06,03,12,39,20.20
2021,06,03,12,40,20.30
2021,06,03,12,41,20.30
2021,06,03,12,42,20.30
2021,06,03,12,43,20.30
2021,06,03,12,44,20.30
2021,06,03,12,45,20.30
2021,06,03,12,46,20.30
2021,06,03,12,47,20.30
2021,06,03,12,48,20.30
2021,06,03,12,49,20.30
2021,06,03,12,50,20.30
2021,06,03,12,51,20.30
2021,06,03,12,52,20.30
2021,06,03,12,53,20.40
2021,06,03,12,54,20.40
2021,06,03,12,55,20.40
2021,06,03,12,56,20.40
2021,06,03,12,57,20.40
2021,06,03,12,58,20.30
2021,06,03,12,59,20.30
2021,06,03,13,00,20.30
2021,06,03,13,01,20.30
2021,06,03,13,02,20.30
2021,06,03,13,03,20.30
2021,06,03,13,04,20.30
2021,06,03,13,05,20.30
2021,06,03,13,06,20.30
2021,06,03,13,07,20.20
2021,06,03,13,08,20.20
2021,06,03,13,09,20.20
2021,06,03,13,10,20.20
2021,06,03,13,11,20.10
2021,06,03,13,12,20.10
2021,06,03,13,13,20.10
2021,06,03,13,14,20.10
2021,06,03,13,15,20.20
2021,06,03,13,16,20.20
2021,06,03,13,17,20.20
2021,06,03,13,18,20.20
2021,06,03,13,19,20.20
2021,06,03,13,20,20.30
2021,06,03,13,21,20.30
2021,06,03,13,22,20.40
2021,06,03,13,23,20.40
2021,06,03,13,24,20.40
2021,06,03,13,25,20.40
2021,06,03,13,26,20.40
2021,06,03,13,27,20.50
2021,06,03,13,28,20.60
2021,06,03,13,29,20.60
2021,06,03,13,30,20.70
2021,06,03,13,31,20.70
2021,06,03,13,32,20.70
2021,06,03,13,33,20.70
2021,06,03,13,34,20.60
2021,06,03,13,35,20.60
2021,06,03,13,36,20.60
2021,06,03,13,37,20.60
2021,06,03,13,38,20.50
2021,06,03,13,39,20.50
2021,06,03,13,40,20.50
2021,06,03,13,41,20.60
2021,06,03,13,42,20.60
2021,06,03,13,43,20.60
2021,06,03,13,44,20.60
2021,06,03,13,45,20.60
2021,06,03,13,46,20.60
2021,06,03,13,47,20.60
2021,06,03,13,48,20.60
2021,06,03,13,49,20.50
2021,06,03,13,50,20.50
2021,06,03,13,51,20.50
2021,06,03,13,52,20.50
2021,06,03,13,53,20.50
2021,06,03,13,54,20.50
2021,06,03,13,55,20.60
2021,06,03,13,56,20.50
2021,06,03,13,57,20.60
2021,06,03,13,58,20.50
2021,06,03,13,59,20.50
2021,06,03,14,00,20.50
2021,06,03,14,01,20.60
2021,06,03,14,02,20.60
2021,06,03,14,03,20.60
2021,06,03,14,04,20.60
2021,06,03,14,05,20.60
2021,06,03,14,06,20.60
2021,06,03,14,07,20.60
2021,06,03,14,08,20.60
2021,06,03,14,09,20.70
2021,06,03,14,10,20.60
2021,06,03,14,11,20.70
2021,06,03,14,12,20.70
2021,06,03,14,13,20.70
2021,06,03,14,14,20.60
2021,06,03,14,15,20.60
2021,06,03,14,16,20.50
2021,06,03,14,17,20.40
2021,06,03,14,18,20.40
2021,06,03,14,19,20.40
2021,06,03,14,20,20.40
2021,06,03,14,21,20.40
2021,06,03,14,22,20.40
2021,06,03,14,23,20.40
2021,06,03,14,24,20.30
2021,06,03,14,25,20.30
2021,06,03,14,26,20.30
2021,06,03,14,27,20.30
2021,06,03,14,28,20.30
2021,06,03,14,29,20.30
2021,06,03,14,30,20.40
2021,06,03,14,31,20.40
2021,06,03,14,32,20.50
2021,06,03,14,33,20.60
2021,06,03,14,34,20.60
2021,06,03,14,35,20.60
2021,06,03,14,36,20.70
2021,06,03,14,37,20.70
2021,06,03,14,38,20.70
2021,06,03,14,39,20.80
2021,06,03,14,40,20.80
2021,06,03,14,41,20.80
2021,06,03,14,42,20.80
2021,06,03,14,43,20.90
2021,06,03,14,44,20.90
2021,06,03,14,45,20.90
2021,06,03,14,46,20.90
2021,06,03,14,47,20.90
2021,06,03,14,48,20.90
2021,06,03,14,49,20.90
2021,06,03,14,50,20.90
2021,06,03,14,51,21.00
2021,06,03,14,52,21.00
2021,06,03,14,53,21.10
2021,06,03,14,54,21.10
2021,06,03,14,55,21.10
2021,06,03,14,56,21.20
2021,06,03,14,57,21.20
2021,06,03,14,58,21.20
2021,06,03,14,59,21.20
2021,06,03,15,00,21.20
2021,06,03,15,01,21.20
2021,06,03,15,02,21.20
2021,06,03,15,03,21.20
2021,06,03,15,04,21.30
2021,06,03,15,05,21.30
2021,06,03,15,06,21.30
2021,06,03,15,07,21.40
2021,06,03,15,08,21.40
2021,06,03,15,09,21.30
2021,06,03,15,10,21.20
2021,06,03,15,11,21.10
2021,06,03,15,12,21.10
2021,06,03,15,13,21.00
2021,06,03,15,14,20.90
2021,06,03,15,15,20.80
2021,06,03,15,16,20.80
2021,06,03,15,17,20.80
2021,06,03,15,18,20.80
2021,06,03,15,19,20.80
2021,06,03,15,20,20.80
2021,06,03,15,21,20.90
2021,06,03,15,22,20.90
2021,06,03,15,23,20.90
2021,06,03,15,24,20.90
2021,06,03,15,25,20.90
2021,06,03,15,26,20.90
2021,06,03,15,27,20.90
2021,06,03,15,28,20.80
2021,06,03,15,29,20.80
2021,06,03,15,30,20.70
2021,06,03,15,31,20.70
2021,06,03,15,32,20.70
2021,06,03,15,33,20.70
2021,06,03,15,34,20.70
2021,06,03,15,35,20.80
2021,06,03,15,36,20.80
2021,06,03,15,37,20.80
2021,06,03,15,38,20.80
2021,06,03,15,39,20.80
2021,06,03,15,40,20.80
2021,06,03,15,41,20.80
2021,06,03,15,42,20.80
2021,06,03,15,43,20.80
2021,06,03,15,44,20.70
2021,06,03,15,45,20.80
2021,06,03,15,46,20.70
2021,06,03,15,47,20.60
2021,06,03,15,48,20.50
2021,06,03,15,49,20.50
2021,06,03,15,50,20.40
2021,06,03,15,51,20.40
2021,06,03,15,52,20.40
2021,06,03,15,53,20.50
2021,06,03,15,54,20.50
2021,06,03,15,55,20.50
2021,06,03,15,56,20.50
2021,06,03,15,57,20.50
2021,06,03,15,58,20.60
2021,06,03,15,59,20.60
2021,06,03,16,00,20.70
2021,06,03,16,01,20.70
2021,06,03,16,02,20.70
2021,06,03,16,03,20.70
2021,06,03,16,04,20.70
2021,06,03,16,05,20.70
2021,06,03,16,06,20.70
2021,06,03,16,07,20.70
2021,06,03,16,08,20.70
2021,06,03,16,09,20.80
2021,06,03,16,10,20.80
2021,06,03,16,11,20.80
2021,06,03,16,12,20.90
2021,06,03,16,13,20.90
2021,06,03,16,14,21.00
2021,06,03,16,15,21.10
2021,06,03,16,16,21.10
2021,06,03,16,17,21.10
2021,06,03,16,18,21.10
2021,06,03,16,19,21.20
2021,06,03,16,20,21.20
2021,06,03,16,21,21.20
2021,06,03,16,22,21.20
2021,06,03,16,23,21.20
2021,06,03,16,24,21.20
2021,06,03,16,25,21.20
2021,06,03,16,26,21.20
2021,06,03,16,27,21.30
2021,06,03,16,28,21.30
2021,06,03,16,29,21.30
2021,06,03,16,30,21.20
2021,06,03,16,31,21.20
2021,06,03,16,32,21.10
2021,06,03,16,33,21.10
2021,06,03,16,34,21.20
2021,06,03,16,35,21.20
2021,06,03,16,36,21.10
2021,06,03,16,37,21.10
2021,06,03,16,38,21.10
2021,06,03,16,39,21.10
2021,06,03,16,40,21.20
2021,06,03,16,41,21.20
2021,06,03,16,42,21.20
2021,06,03,16,43,21.20
2021,06,03,16,44,21.20
2021,06,03,16,45,21.20
2021,06,03,16,46,21.10
2021,06,03,16,47,21.00
2021,06,03,16,48,21.00
2021,06,03,16,49,21.00
2021,06,03,16,50,21.00
2021,06,03,16,51,21.00
2021,06,03,16,52,20.90
2021,06,03,16,53,20.90
2021,06,03,16,54,20.90
2021,06,03,16,55,20.90
2021,06,03,16,56,21.00
2021,06,03,16,57,21.10
2021,06,03,16,58,21.20
2021,06,03,16,59,21.20
2021,06,03,17,00,21.30
2021,06,03,17,01,21.30
2021,06,03,17,02,21.30
2021,06,03,17,03,21.30
2021,06,03,17,04,21.20
2021,06,03,17,05,21.20
2021,06,03,17,06,21.20
2021,06,03,17,07,21.20
2021,06,03,17,08,21.20
2021,06,03,17,09,21.20
2021,06,03,17,10,21.20
2021,06,03,17,11,21.20
2021,06,03,17,12,21.20
2021,06,03,17,13,21.20
2021,06,03,17,14,21.10
2021,06,03,17,15,21.10
2021,06,03,17,16,21.10
2021,06,03,17,17,21.10
2021,06,03,17,18,21.10
2021,06,03,17,19,21.00